[[{"header":{"parameterUnit":"m.s-1","parameterCategory":1,"la1":30.2991,"la2":30.254,"lo1":-89.0895,"lo2":-89.0444,"dy":0.0017,"dx":0.0017,"nx":28,"ny":28,"refTime":"2024-03-16T03:00:00:Z","depth":0,"parameterNumber":2,"parameterNumberName":"U-component_of_WINDS"},"data":[0,0,0,0,0,0,0,0,0,0,0,0,0,0,0,0,0,0,0,0,0,0,0,0,0,0,0,0,0,0,0,0,0,0,0,0,0,0,0,0,0,0,0,0,0,0,0,0,0,0,0,0,0,0,0,0,0,0,-0.5965,-0.5965,0,-0.5919,-0.5919,-0.5918,-0.5876,-0.5876,-0.5875,-0.5875,-0.5826,-0.5825,-0.5824,0,0,0,0,0,0,0,0,0,0,0,0,0,-0.6015,-0.6014,-0.5965,-0.5965,-0.5964,-0.5919,-0.5919,-0.5918,-0.5876,-0.5876,-0.5875,-0.5875,-0.5826,-0.5825,-0.5824,0,0,0,0,0,0,0,0,0,0,0,0,0,-0.5983,-0.6014,-0.5965,-0.5938,-0.5935,-0.5919,-0.5919,-0.5918,-0.5876,-0.5876,-0.5875,-0.5874,-0.5826,-0.5825,-0.5824,-0.5831,0,0,-0.582,-0.5819,0,0,0,0,0,0,0,0,-0.5985,-0.5982,-0.5942,-0.594,-0.5936,-0.5903,-0.5918,-0.5889,-0.5877,-0.5899,-0.5875,-0.5874,-0.5852,-0.5848,-0.5841,-0.5829,-0.5827,-0.582,-0.5819,-0.5819,-0.5818,0,0,0,0,0,0,0,-0.5987,-0.5983,-0.5947,-0.5942,-0.5938,-0.5927,-0.5922,-0.5912,-0.588,-0.5897,-0.5893,-0.5889,-0.585,-0.5843,-0.584,-0.5826,-0.582,-0.5819,-0.5818,-0.5818,-0.5817,-0.5817,0,0,0,0,0,0,-0.5994,-0.5985,-0.5948,-0.5945,-0.596,-0.5927,-0.5921,-0.5914,-0.588,-0.5874,-0.5889,-0.5887,-0.5845,-0.5841,-0.5838,-0.5844,-0.5819,-0.5817,-0.5817,-0.5816,-0.5817,-0.5818,0,0,0,0,0,0,-0.5995,-0.5991,-0.595,-0.5965,-0.5959,-0.5927,-0.592,-0.5914,-0.5906,-0.5874,-0.5868,-0.5888,-0.5844,-0.584,-0.5833,-0.5842,-0.5817,-0.5816,-0.5815,-0.5816,-0.5817,-0.5856,0,0,0,0,0,0,-0.5997,-0.5992,-0.5995,-0.5965,-0.5958,-0.5947,-0.592,-0.5913,-0.5905,-0.5901,-0.5872,-0.5866,-0.5844,-0.5835,-0.5832,-0.5839,-0.5815,-0.5814,-0.5816,-0.5817,-0.5854,-0.5858,-0.5862,0,0,0,0,0,-0.5999,-0.6007,-0.5995,-0.5991,-0.5961,-0.5947,-0.5943,-0.5918,-0.5905,-0.5908,-0.5887,-0.5867,-0.5841,-0.5835,-0.5831,-0.5838,-0.5813,-0.5815,-0.5817,-0.5852,-0.5857,-0.5862,0,0,0,0,0,0,-0.6038,-0.6003,-0.5989,-0.5988,-0.5971,-0.594,-0.5942,-0.5925,-0.591,-0.5907,-0.5876,-0.587,-0.5866,-0.5851,-0.5845,-0.5843,-0.5825,-0.5826,-0.5853,-0.5858,-0.5862,-0.5865,-0.5814,0,0,0,0,0,-0.6047,-0.6039,-0.6009,-0.6011,-0.6003,-0.5974,-0.5967,-0.595,-0.593,-0.5923,-0.5902,-0.5883,-0.5871,-0.5864,-0.5851,-0.5852,-0.5844,-0.5855,-0.5859,-0.5862,-0.5863,-0.5862,-0.5866,-0.5823,-0.5823,-0.5823,0,0,-0.6064,-0.6044,-0.6041,-0.6018,-0.6003,-0.5995,-0.5969,-0.5962,-0.5955,-0.5921,-0.5914,-0.5898,-0.5875,-0.5873,-0.587,-0.586,-0.5874,-0.5864,-0.5868,-0.5866,-0.5864,-0.5868,-0.5872,-0.5824,-0.5824,-0.5824,0,0,-0.6092,-0.6076,-0.6076,-0.6062,-0.6039,-0.602,-0.602,-0.5992,-0.5981,-0.5973,-0.5947,-0.5939,-0.5919,-0.5904,-0.5893,-0.5916,-0.5897,-0.5913,-0.5934,-0.5933,-0.5937,-0.594,-0.5947,-0.595,-0.5914,-0.5914,-0.5914,0,-0.6116,-0.6104,-0.6078,-0.6073,-0.6063,-0.6033,-0.6032,-0.6019,-0.5994,-0.5987,-0.5977,-0.5951,-0.5933,-0.5926,-0.5932,-0.5925,-0.5923,-0.5916,-0.5939,-0.5941,-0.5943,-0.595,-0.5953,-0.5916,-0.5916,-0.5916,-0.5915,0,-0.6135,-0.6127,-0.613,-0.6106,-0.6097,-0.6094,-0.6067,-0.6061,-0.6044,-0.6026,-0.6018,-0.5996,-0.5978,-0.5975,-0.5958,-0.5966,-0.596,-0.5945,-0.5925,-0.595,-0.5956,-0.5958,-0.5919,-0.5918,-0.5918,-0.5917,0,0,-0.6185,-0.6148,-0.6149,-0.6138,-0.6112,-0.6105,-0.61,-0.6083,-0.6078,-0.6062,-0.6057,-0.6041,-0.6026,-0.6014,-0.5995,-0.5995,-0.6014,-0.5979,-0.5978,-0.5986,-0.602,-0.6032,-0.6035,-0.6001,-0.6001,-0.6002,-0.6022,0,-0.6208,-0.6199,-0.6176,-0.6173,-0.6166,-0.6137,-0.6133,-0.6116,-0.6099,-0.6089,-0.607,-0.6059,-0.6041,-0.6034,-0.6032,-0.6012,-0.602,-0.601,-0.5995,-0.5995,-0.6001,-0.6038,-0.605,-0.607,-0.6024,-0.6024,-0.6024,0,-0.6234,-0.622,-0.6217,-0.6191,-0.6186,-0.6183,-0.6166,-0.6157,-0.6137,-0.6125,-0.6112,-0.6091,-0.6084,-0.6067,-0.6057,-0.6051,-0.6043,-0.6032,-0.6032,-0.6029,-0.6011,-0.6035,-0.6076,-0.6079,-0.6028,-0.6028,-0.6027,0,-0.627,-0.625,-0.6246,-0.6238,-0.6207,-0.6205,-0.6192,-0.6172,-0.6163,-0.6148,-0.6142,-0.6125,-0.6116,-0.6104,-0.6079,-0.6069,-0.6072,-0.6052,-0.606,-0.6061,-0.6061,-0.6062,-0.6101,-0.6058,-0.6058,-0.6058,-0.6058,0,-0.6298,-0.6297,-0.6262,-0.6259,-0.6258,-0.6231,-0.6229,-0.6213,-0.6195,-0.6188,-0.6163,-0.6157,-0.6125,-0.6115,-0.6096,-0.609,-0.6086,-0.6075,-0.607,-0.6077,-0.6078,-0.6071,-0.6069,-0.6059,-0.6058,-0.6058,-0.6058,0,-0.6338,-0.6315,-0.6308,-0.628,-0.6273,-0.6272,-0.6248,-0.6244,-0.6226,-0.6218,-0.6214,-0.6185,-0.6172,-0.6147,-0.6127,-0.6114,-0.6112,-0.6103,-0.6119,-0.6115,-0.6125,-0.6124,-0.616,-0.6163,-0.6119,-0.612,-0.612,0,-0.6357,-0.6356,-0.6327,-0.6322,-0.631,-0.63,-0.6292,-0.6265,-0.6257,-0.6234,-0.6232,-0.6218,-0.6204,-0.6185,-0.6162,-0.6146,-0.6136,-0.615,-0.6134,-0.6141,-0.6136,-0.6136,-0.6135,-0.6153,-0.6154,-0.6155,-0.6155,0,-0.6393,-0.6381,-0.637,-0.6355,-0.6345,-0.6332,-0.6317,-0.6313,-0.6283,-0.6275,-0.6262,-0.6252,-0.6231,-0.6217,-0.6198,-0.6183,-0.6164,-0.616,-0.6161,-0.6168,-0.6177,-0.6172,-0.6128,-0.6159,-0.6159,-0.6159,-0.6158,-0.6158,-0.6422,-0.642,-0.6399,-0.6388,-0.6374,-0.6361,-0.6355,-0.6337,-0.6326,-0.6308,-0.6293,-0.6281,-0.626,-0.6233,-0.622,-0.621,-0.62,-0.6202,-0.6202,-0.6203,-0.6205,-0.618,-0.6206,-0.6206,-0.6206,-0.6206,-0.6206,0,-0.6456,-0.6442,-0.6431,-0.6412,-0.6402,-0.6386,-0.6368,-0.6361,-0.6352,-0.6335,-0.6322,-0.6307,-0.6293,-0.6269,-0.6253,-0.6249,-0.624,-0.6246,-0.6245,-0.6242,-0.6215,-0.6216,-0.6253,-0.6253,-0.6253,-0.6253,-0.6253,-0.6253,-0.6472,-0.6467,-0.6454,-0.6441,-0.6427,-0.6416,-0.6407,-0.6394,-0.6381,-0.6365,-0.6354,-0.6338,-0.6318,-0.63,-0.6286,-0.628,-0.6274,-0.6283,-0.6274,-0.6249,-0.6244,-0.624,-0.624,-0.6282,-0.6283,-0.6301,-0.6301,-0.6302]},{"header":{"parameterUnit":"m.s-1","parameterCategory":1,"la1":30.2991,"la2":30.254,"lo1":-89.0895,"lo2":-89.0444,"dy":0.0017,"dx":0.0017,"nx":28,"ny":28,"refTime":"2024-03-16T03:00:00:Z","depth":0,"parameterNumber":3,"parameterNumberName":"V-component_of_WINDS"},"data":[0,0,0,0,0,0,0,0,0,0,0,0,0,0,0,0,0,0,0,0,0,0,0,0,0,0,0,0,0,0,0,0,0,0,0,0,0,0,0,0,0,0,0,0,0,0,0,0,0,0,0,0,0,0,0,0,0,0,2.081,2.081,0,2.0799,2.0799,2.0799,2.0745,2.0743,2.0742,2.0741,2.0732,2.0733,2.0734,0,0,0,0,0,0,0,0,0,0,0,0,0,2.0782,2.0783,2.081,2.081,2.0809,2.0799,2.0799,2.0799,2.0745,2.0743,2.0742,2.074,2.0731,2.0732,2.0734,0,0,0,0,0,0,0,0,0,0,0,0,0,2.0785,2.0783,2.081,2.0781,2.0778,2.08,2.0799,2.0799,2.0745,2.0743,2.0741,2.074,2.0731,2.0732,2.0734,2.0782,0,0,2.0738,2.0739,0,0,0,0,0,0,0,0,2.0785,2.0787,2.0785,2.0783,2.078,2.0771,2.0786,2.0793,2.0746,2.0758,2.0741,2.0739,2.0747,2.0747,2.0749,2.0781,2.0781,2.0738,2.0739,2.074,2.074,0,0,0,0,0,0,0,2.0785,2.0787,2.0806,2.0785,2.0782,2.0769,2.0767,2.0787,2.0763,2.0757,2.0753,2.0752,2.0745,2.0748,2.0748,2.0781,2.0738,2.074,2.0741,2.0741,2.0852,2.0854,0,0,0,0,0,0,2.0789,2.0787,2.0806,2.0805,2.0778,2.0771,2.0769,2.0776,2.0763,2.0759,2.0754,2.075,2.0746,2.0747,2.0748,2.0803,2.074,2.0741,2.0742,2.085,2.0852,2.0855,0,0,0,0,0,0,2.0789,2.0791,2.0806,2.0795,2.0796,2.0773,2.0782,2.0777,2.078,2.0761,2.0756,2.0761,2.0745,2.0746,2.0774,2.0802,2.0742,2.0743,2.0847,2.0851,2.0854,2.0915,0,0,0,0,0,0,2.0788,2.0791,2.0809,2.0796,2.0797,2.0833,2.0784,2.0778,2.0782,2.0777,2.0767,2.0763,2.0743,2.0772,2.0775,2.0803,2.0744,2.0845,2.0849,2.0853,2.091,2.092,2.0928,0,0,0,0,0,2.0787,2.0828,2.0811,2.0813,2.0819,2.0834,2.0835,2.0811,2.0785,2.0803,2.0791,2.0763,2.0798,2.0775,2.0778,2.0807,2.0843,2.0848,2.0852,2.0906,2.0918,2.0927,0,0,0,0,0,0,2.0846,2.0825,2.0806,2.0843,2.0841,2.0825,2.0847,2.0824,2.0829,2.0824,2.0794,2.0792,2.0824,2.0818,2.0793,2.0853,2.0816,2.0822,2.0856,2.0867,2.0875,2.0876,2.0746,0,0,0,0,0,2.0863,2.0877,2.0858,2.0893,2.0892,2.087,2.0876,2.0857,2.0854,2.0853,2.0842,2.084,2.085,2.0858,2.0867,2.0909,2.0906,2.093,2.0939,2.0946,2.0952,2.0973,2.0984,2.087,2.087,2.087,0,0,2.0899,2.0889,2.09,2.0904,2.09,2.0915,2.087,2.0888,2.0899,2.0856,2.0881,2.0874,2.0869,2.0904,2.0919,2.09,2.0982,2.0952,2.0958,2.0959,2.0979,2.099,2.1,2.0873,2.0873,2.0872,0,0,2.0972,2.0966,2.0994,2.0991,2.0985,2.0969,2.0976,2.0963,2.0956,2.0981,2.0949,2.0962,2.098,2.0978,2.098,2.1051,2.1026,2.1055,2.1101,2.1122,2.1131,2.1139,2.1165,2.1175,2.106,2.106,2.106,0,2.1018,2.1039,2.1011,2.1032,2.1034,2.0995,2.1023,2.1021,2.1018,2.1021,2.1,2.1022,2.1016,2.105,2.1067,2.107,2.1077,2.1056,2.1132,2.114,2.1147,2.1171,2.1181,2.1064,2.1063,2.1063,2.1062,0,2.1095,2.1111,2.1134,2.1132,2.1137,2.1161,2.1137,2.1146,2.1126,2.1114,2.1139,2.1131,2.1137,2.1143,2.1125,2.1175,2.1163,2.1138,2.11,2.1162,2.1184,2.1193,2.1069,2.1067,2.1066,2.1065,0,0,2.1207,2.1188,2.1197,2.1195,2.1185,2.1197,2.1219,2.1224,2.1232,2.1231,2.1249,2.1265,2.1241,2.1243,2.1224,2.1242,2.13,2.1214,2.1214,2.1231,2.1354,2.1374,2.1386,2.1283,2.1284,2.1286,2.1355,0,2.1278,2.1314,2.1289,2.133,2.1344,2.1305,2.1324,2.132,2.1309,2.1319,2.1305,2.1317,2.1284,2.1285,2.1302,2.1289,2.1324,2.1284,2.13,2.1301,2.1303,2.1397,2.1419,2.1484,2.1363,2.1365,2.1366,0,2.1365,2.1367,2.1409,2.1396,2.14,2.1418,2.1421,2.143,2.1425,2.1415,2.1416,2.1392,2.1413,2.1375,2.1403,2.1376,2.1381,2.1376,2.1378,2.1379,2.1338,2.1402,2.1505,2.1515,2.1379,2.1378,2.1377,0,2.1443,2.1456,2.1483,2.1483,2.1467,2.1481,2.1475,2.1467,2.1472,2.1474,2.1476,2.1481,2.1484,2.1488,2.1466,2.144,2.1497,2.1458,2.149,2.1491,2.1505,2.1504,2.1611,2.1507,2.1506,2.1506,2.1506,0,2.1525,2.1552,2.1518,2.1534,2.1564,2.1534,2.1564,2.1554,2.1548,2.1562,2.1529,2.1543,2.1512,2.1523,2.1506,2.1532,2.1533,2.1526,2.1521,2.153,2.1531,2.1533,2.1528,2.1509,2.1508,2.1508,2.1507,0,2.1618,2.1596,2.1622,2.1605,2.1601,2.1623,2.1609,2.1623,2.1608,2.1627,2.1629,2.1606,2.1617,2.1595,2.1603,2.1592,2.1629,2.1617,2.1631,2.1628,2.1661,2.1659,2.1774,2.1788,2.1674,2.1675,2.1676,0,2.1672,2.1692,2.1676,2.1683,2.1679,2.169,2.1694,2.1666,2.1671,2.1666,2.1681,2.1689,2.1694,2.1714,2.1698,2.1704,2.1692,2.1732,2.1693,2.1701,2.1694,2.1693,2.1695,2.1741,2.1742,2.1743,2.1744,0,2.1771,2.1759,2.1766,2.1768,2.1774,2.1775,2.1774,2.1781,2.1751,2.1759,2.1769,2.1773,2.1781,2.1789,2.1791,2.1786,2.176,2.1756,2.1764,2.1773,2.1781,2.1778,2.1654,2.1754,2.1753,2.1752,2.1752,2.1751,2.1847,2.1862,2.1854,2.1862,2.1858,2.1857,2.187,2.1856,2.1864,2.1868,2.185,2.1865,2.1858,2.1858,2.1855,2.1866,2.1848,2.1859,2.1862,2.1866,2.1872,2.1778,2.1866,2.1866,2.1865,2.1865,2.1865,0,2.1945,2.1937,2.1944,2.1943,2.195,2.1924,2.192,2.1928,2.1941,2.1936,2.1941,2.1953,2.1961,2.1946,2.1951,2.1963,2.1951,2.1965,2.1965,2.1964,2.1887,2.188,2.1975,2.1975,2.1975,2.1975,2.1975,2.1975,2.1996,2.2022,2.2008,2.2031,2.2022,2.2035,2.2036,2.2035,2.2031,2.2046,2.2052,2.2041,2.2032,2.2036,2.2042,2.2038,2.2042,2.206,2.2051,2.198,2.1969,2.1959,2.1952,2.2061,2.2061,2.2127,2.2128,2.2129]}]]